User: anonymous   Login
Location: Unspecified
(0.0000°N, 0.0000°E)
Time: 17:11:39
(UTC+02:00)
Language:

Ariane H10 - Orbit

View from above orbital plane
View from above orbital plane
View from above satellite
View from above satellite

Ground track
Ground track

The orbit data is extracted from the following two-line orbital elements,

1 19122U 88040B   16180.37634820  .00000285  00000-0  19028-2 0  9991
2 19122   7.5081 317.7470 7132824 213.3151  69.1733  2.33228610188676
Epoch (UTC): 28 June 2016 09:01:56
Eccentricity: 0.7132824
inclination: 7.5081°
perigee height: 508 km
apogee height: 34772 km
right ascension of ascending node: 317.7470°
argument of perigee: 213.3151°
revolutions per day: 2.33228610
mean anomaly at epoch: 69.1733°
orbit number at epoch: 18867

The dashed part of the orbit path shows where the satellite is in the earth's shadow,  

DLR